Location: Newark
(60.6561°N, 46.5772°E)
Time: 16:37:43
(UTC+00:00)

Tiros 1 despin weight - Pass Details

Date: 21 October 2019
Orbit: 594 x 642 km, 48.2° (Epoch: 14 November)

Event Time Altitude Azimuth Distance (km) Brightness Sun altitude
Rises 21:37:47 0° 204° (SSW) 2,928 - -39.0°
Reaches altitude 10° 21:41:54 10° 169° (S) 2,030 - -38.8°
Maximum altitude 21:43:08 11° 153° (SSE) 1,969 - -38.8°
Drops below altitude 10° 21:44:22 10° 138° (SE) 2,034 - -38.7°
Sets 21:48:30 0° 103° (ESE) 2,949 - -38.5°
